Station Historical Data
Daily Summary for October 24, 2017 Units:  English    Metric   Both
« Previous Day
Next Day »
Daily Weekly Monthly Yearly Custom
  High: Low: Average:
Temperature: 62.6 °F 50.3 °F 57.3 °F
Dew Point: 55.3 °F 39.3 °F 48.1 °F
Humidity: 89% 50% 72%
Wind Speed: 14.0mph 0.0mph 5mph
Wind Gust: 25.0mph - -
Wind- - SSW
Pressure: 29.70 in 29.54 in -
Precipitation: 0.00 in    
Historical Graphs
 
 
Tabular Data for October 24, 2017
Time Temperature Dew Point Pressure Wind Wind Speed Wind Gust Humidity Rainfall Rate (Hourly)
00:04 60.2 °F 55.3 °F 29.61 in South 3.0 mph 5.0 mph 84% 0.02 in
00:09 60.1 °F 55.2 °F 29.60 in South 1.0 mph 5.0 mph 84% 0.02 in
00:14 60.0 °F 55.2 °F 29.60 in SSW 1.0 mph 4.0 mph 84% 0.02 in
00:19 59.9 °F 55.1 °F 29.58 in Calm   3.0 mph 84% 0.01 in
00:24 59.9 °F 55.1 °F 29.58 in Calm     84% 0.01 in
00:29 59.9 °F 55.1 °F 29.58 in Calm     84% 0.01 in
00:34 59.8 °F 55.0 °F 29.56 in Calm     84% 0.00 in
00:39 59.8 °F 55.0 °F 29.56 in Calm     84% 0.00 in
00:44 59.8 °F 55.0 °F 29.57 in Calm     84% 0.00 in
00:49 59.8 °F 55.0 °F 29.56 in Calm     84% 0.01 in
00:54 59.7 °F 54.9 °F 29.57 in Calm   2.0 mph 84% 0.01 in
01:04 59.7 °F 55.2 °F 29.60 in SSW 6.0 mph 9.0 mph 85% 0.10 in
01:09 59.5 °F 55.3 °F 29.58 in SSW 4.0 mph 13.0 mph 86% 0.12 in
01:14 59.4 °F 55.2 °F 29.58 in SSW 3.0 mph 7.0 mph 86% 0.14 in
01:19 59.1 °F 54.9 °F 29.57 in South 2.0 mph 7.0 mph 86% 0.16 in
01:24 58.9 °F 55.0 °F 29.57 in SSE 2.0 mph 5.0 mph 87% 0.17 in
01:29 58.6 °F 54.7 °F 29.55 in SSE 1.0 mph 6.0 mph 87% 0.17 in
01:34 58.5 °F 54.6 °F 29.56 in SSE 1.0 mph 6.0 mph 87% 0.19 in
01:39 58.3 °F 54.8 °F 29.57 in SE 1.0 mph 5.0 mph 88% 0.19 in
01:44 58.2 °F 54.7 °F 29.56 in Calm   5.0 mph 88% 0.21 in
01:49 58.0 °F 54.5 °F 29.57 in South 5.0 mph 5.0 mph 88% 0.22 in
01:54 58.0 °F 54.5 °F 29.57 in SSW 2.0 mph 5.0 mph 88% 0.22 in
01:59 57.9 °F 54.4 °F 29.56 in Calm   3.0 mph 88% 0.21 in
02:04 57.8 °F 54.3 °F 29.56 in SSW 5.0 mph 5.0 mph 88% 0.14 in
02:09 57.8 °F 54.6 °F 29.56 in SSE 5.0 mph 9.0 mph 89% 0.12 in
02:14 57.7 °F 54.5 °F 29.56 in Calm   6.0 mph 89% 0.10 in
02:19 57.7 °F 54.5 °F 29.57 in SSW 1.0 mph 6.0 mph 89% 0.08 in
02:24 57.7 °F 54.5 °F 29.57 in SSW 3.0 mph 8.0 mph 89% 0.07 in
02:29 57.7 °F 54.5 °F 29.57 in SSW 3.0 mph 12.0 mph 89% 0.07 in
02:34 57.6 °F 54.4 °F 29.56 in SSW 4.0 mph 12.0 mph 89% 0.05 in
02:39 57.5 °F 54.0 °F 29.56 in SSW 4.0 mph 11.0 mph 88% 0.05 in
02:44 57.4 °F 53.9 °F 29.55 in SSW 4.0 mph 9.0 mph 88% 0.03 in
02:49 57.3 °F 53.8 °F 29.56 in SSW 4.0 mph 9.0 mph 88% 0.01 in
02:54 57.3 °F 53.5 °F 29.55 in South 6.0 mph 8.0 mph 87% 0.01 in
02:59 57.2 °F 53.4 °F 29.55 in South 2.0 mph 8.0 mph 87% 0.00 in
03:04 57.0 °F 53.2 °F 29.56 in Calm   6.0 mph 87% 0.00 in
03:09 57.0 °F 53.2 °F 29.56 in South 1.0 mph 9.0 mph 87% 0.00 in
03:14 56.8 °F 53.0 °F 29.56 in SSE 1.0 mph 6.0 mph 87% 0.00 in
03:19 56.8 °F 52.7 °F 29.56 in Calm   6.0 mph 86% 0.00 in
03:24 56.7 °F 52.6 °F 29.56 in SSE 1.0 mph 10.0 mph 86% 0.00 in
03:29 56.7 °F 52.9 °F 29.55 in South 3.0 mph 10.0 mph 87% 0.00 in
03:34 56.7 °F 52.6 °F 29.55 in South 3.0 mph 8.0 mph 86% 0.00 in
03:39 56.8 °F 52.7 °F 29.55 in South 3.0 mph 7.0 mph 86% 0.00 in
03:44 56.6 °F 52.5 °F 29.55 in South 2.0 mph 7.0 mph 86% 0.00 in
03:49 56.5 °F 52.4 °F 29.54 in South 2.0 mph 9.0 mph 86% 0.00 in
03:54 56.5 °F 52.4 °F 29.54 in SSW 6.0 mph 8.0 mph 86% 0.00 in
03:59 56.5 °F 52.4 °F 29.54 in SSE 4.0 mph 8.0 mph 86% 0.00 in
04:04 56.6 °F 52.5 °F 29.54 in South 4.0 mph 8.0 mph 86% 0.00 in
04:09 56.8 °F 52.3 °F 29.55 in SSE 4.0 mph 7.0 mph 85% 0.00 in
04:14 57.1 °F 52.6 °F 29.55 in South 4.0 mph 9.0 mph 85% 0.00 in
04:19 57.3 °F 52.8 °F 29.55 in SSW 7.0 mph 8.0 mph 85% 0.00 in
04:24 57.5 °F 52.7 °F 29.55 in SSW 6.0 mph 9.0 mph 84% 0.00 in
04:29 57.6 °F 52.8 °F 29.55 in SSW 4.0 mph 6.0 mph 84% 0.00 in
04:34 57.7 °F 52.9 °F 29.55 in SE 2.0 mph 12.0 mph 84% 0.00 in
04:39 57.8 °F 52.7 °F 29.55 in South 3.0 mph 12.0 mph 83% 0.00 in
04:44 57.9 °F 52.8 °F 29.55 in South 3.0 mph 8.0 mph 83% 0.00 in
04:49 57.9 °F 52.8 °F 29.55 in South 3.0 mph 9.0 mph 83% 0.00 in
04:54 57.9 °F 52.8 °F 29.55 in South 3.0 mph 9.0 mph 83% 0.00 in
04:59 57.9 °F 52.8 °F 29.55 in South 3.0 mph 9.0 mph 83% 0.00 in
05:04 57.9 °F 52.4 °F 29.55 in South 4.0 mph 8.0 mph 82% 0.00 in
05:09 57.8 °F 52.3 °F 29.54 in South 4.0 mph 10.0 mph 82% 0.00 in
05:14 57.6 °F 52.1 °F 29.54 in South 3.0 mph 10.0 mph 82% 0.00 in
05:19 57.5 °F 52.0 °F 29.55 in SSW 3.0 mph 14.0 mph 82% 0.00 in
05:24 57.4 °F 51.9 °F 29.55 in SSW 11.0 mph 13.0 mph 82% 0.00 in
05:29 57.3 °F 51.9 °F 29.55 in South 2.0 mph 11.0 mph 82% 0.00 in
05:34 57.4 °F 51.9 °F 29.55 in South 4.0 mph 13.0 mph 82% 0.00 in
05:39 57.5 °F 51.7 °F 29.55 in South 1.0 mph 15.0 mph 81% 0.00 in
05:44 57.5 °F 51.7 °F 29.55 in SSW 5.0 mph 15.0 mph 81% 0.00 in
05:49 57.6 °F 51.8 °F 29.55 in SSW 5.0 mph 14.0 mph 81% 0.00 in
05:54 57.8 °F 52.0 °F 29.55 in SSW 6.0 mph 21.0 mph 81% 0.00 in
05:59 58.1 °F 52.0 °F 29.56 in SSW 6.0 mph 14.0 mph 80% 0.00 in
06:04 58.4 °F 52.3 °F 29.56 in SSW 2.0 mph 18.0 mph 80% 0.00 in
06:09 58.6 °F 52.1 °F 29.56 in SW 11.0 mph 17.0 mph 79% 0.00 in
06:14 58.7 °F 52.2 °F 29.55 in South 3.0 mph 16.0 mph 79% 0.00 in
06:19 58.7 °F 52.2 °F 29.55 in South 7.0 mph 16.0 mph 79% 0.00 in
06:24 58.6 °F 52.1 °F 29.55 in South 5.0 mph 14.0 mph 79% 0.00 in
06:29 58.4 °F 51.9 °F 29.55 in South 6.0 mph 15.0 mph 79% 0.00 in
06:34 58.3 °F 51.8 °F 29.56 in South 5.0 mph 14.0 mph 79% 0.00 in
06:39 58.2 °F 51.7 °F 29.56 in SW 1.0 mph 10.0 mph 79% 0.00 in
06:44 58.1 °F 51.6 °F 29.57 in SSW 14.0 mph 15.0 mph 79% 0.00 in
06:49 58.1 °F 51.6 °F 29.57 in SW 5.0 mph 14.0 mph 79% 0.00 in
06:54 58.0 °F 51.5 °F 29.57 in SSW 6.0 mph 18.0 mph 79% 0.00 in
06:59 58.1 °F 51.6 °F 29.57 in SSW 7.0 mph 18.0 mph 79% 0.00 in
07:04 58.2 °F 51.7 °F 29.59 in SW 8.0 mph 20.0 mph 79% 0.00 in
07:09 57.9 °F 52.1 °F 29.59 in WSW 8.0 mph 20.0 mph 81% 0.01 in
07:14 57.3 °F 51.9 °F 29.59 in SW 8.0 mph 15.0 mph 82% 0.02 in
07:19 56.9 °F 52.1 °F 29.59 in SW 7.0 mph 14.0 mph 84% 0.02 in
07:24 56.6 °F 51.8 °F 29.59 in SW 6.0 mph 14.0 mph 84% 0.02 in
07:29 56.4 °F 51.9 °F 29.59 in WSW 6.0 mph 12.0 mph 85% 0.02 in
07:34 56.1 °F 51.7 °F 29.59 in SW 5.0 mph 12.0 mph 85% 0.02 in
07:39 55.9 °F 51.5 °F 29.60 in WSW 8.0 mph 17.0 mph 85% 0.02 in
07:44 55.8 °F 51.4 °F 29.60 in SW 6.0 mph 15.0 mph 85% 0.02 in
07:49 55.6 °F 51.5 °F 29.60 in SSW 6.0 mph 20.0 mph 86% 0.02 in
07:54 55.5 °F 51.4 °F 29.61 in SW 5.0 mph 14.0 mph 86% 0.02 in
07:59 55.5 °F 51.4 °F 29.61 in SW 7.0 mph 14.0 mph 86% 0.02 in
08:04 55.4 °F 51.6 °F 29.61 in SW 6.0 mph 14.0 mph 87% 0.02 in
08:09 55.3 °F 51.5 °F 29.61 in SW 5.0 mph 13.0 mph 87% 0.02 in
08:14 55.4 °F 51.6 °F 29.61 in WSW 9.0 mph 11.0 mph 87% 0.01 in
08:19 55.4 °F 51.6 °F 29.61 in SW 4.0 mph 15.0 mph 87% 0.01 in
08:24 55.1 °F 51.3 °F 29.61 in SW 4.0 mph 13.0 mph 87% 0.01 in
08:29 55.0 °F 51.5 °F 29.61 in NNW 6.0 mph 18.0 mph 88% 0.02 in
08:34 55.0 °F 51.5 °F 29.61 in WSW 6.0 mph 18.0 mph 88% 0.02 in
08:39 55.1 °F 51.6 °F 29.61 in SW 5.0 mph 12.0 mph 88% 0.02 in
08:44 55.1 °F 51.6 °F 29.61 in SW 5.0 mph 12.0 mph 88% 0.02 in
08:49 55.2 °F 52.0 °F 29.62 in SW 5.0 mph 14.0 mph 89% 0.02 in
08:54 55.3 °F 51.8 °F 29.62 in SW 5.0 mph 14.0 mph 88% 0.02 in
08:59 55.3 °F 51.8 °F 29.62 in SW 5.0 mph 12.0 mph 88% 0.02 in
09:04 55.5 °F 52.3 °F 29.62 in South 3.0 mph 10.0 mph 89% 0.02 in
09:09 55.8 °F 52.6 °F 29.62 in South 4.0 mph 10.0 mph 89% 0.01 in
09:14 56.0 °F 52.8 °F 29.62 in SSW 3.0 mph 10.0 mph 89% 0.01 in
09:19 56.2 °F 53.0 °F 29.62 in WSW 4.0 mph 7.0 mph 89% 0.01 in
09:24 56.0 °F 52.5 °F 29.62 in SW 3.0 mph 10.0 mph 88% 0.01 in
09:29 56.3 °F 52.5 °F 29.62 in SW 8.0 mph 9.0 mph 87% 0.00 in
09:34 56.4 °F 52.6 °F 29.62 in SSW 6.0 mph 8.0 mph 87% 0.00 in
09:39 56.9 °F 53.1 °F 29.62 in SW 4.0 mph 9.0 mph 87% 0.00 in
09:44 57.3 °F 52.8 °F 29.62 in SW 4.0 mph 13.0 mph 85% 0.00 in
09:49 57.3 °F 52.5 °F 29.62 in SW 5.0 mph 13.0 mph 84% 0.00 in
09:54 57.7 °F 52.6 °F 29.63 in SSW 5.0 mph 11.0 mph 83% 0.00 in
09:59 57.9 °F 52.1 °F 29.62 in SSW 5.0 mph 11.0 mph 81% 0.00 in
10:04 58.1 °F 52.0 °F 29.62 in SW 5.0 mph 12.0 mph 80% 0.00 in
10:09 58.3 °F 51.8 °F 29.62 in West 5.0 mph 10.0 mph 79% 0.00 in
10:14 58.1 °F 51.3 °F 29.62 in SW 5.0 mph 11.0 mph 78% 0.00 in
10:19 58.3 °F 51.1 °F 29.62 in SSW 5.0 mph 12.0 mph 77% 0.00 in
10:24 58.0 °F 50.8 °F 29.62 in SSE 6.0 mph 12.0 mph 77% 0.00 in
10:29 57.9 °F 50.7 °F 29.62 in West 6.0 mph 12.0 mph 77% 0.00 in
10:34 58.2 °F 50.3 °F 29.62 in SSW 7.0 mph 16.0 mph 75% 0.00 in
10:39 58.5 °F 50.2 °F 29.62 in SSE 4.0 mph 17.0 mph 74% 0.00 in
10:44 58.8 °F 50.5 °F 29.62 in WSW 6.0 mph 17.0 mph 74% 0.00 in
10:49 59.1 °F 50.8 °F 29.63 in SW 7.0 mph 17.0 mph 74% 0.00 in
10:54 59.3 °F 50.6 °F 29.63 in SW 6.0 mph 15.0 mph 73% 0.00 in
10:59 59.6 °F 50.6 °F 29.62 in SW 7.0 mph 16.0 mph 72% 0.00 in
11:04 59.7 °F 51.4 °F 29.63 in SW 7.0 mph 16.0 mph 74% 0.00 in
11:09 59.3 °F 50.6 °F 29.63 in SW 6.0 mph 12.0 mph 73% 0.00 in
11:14 58.6 °F 50.0 °F 29.63 in SW 6.0 mph 12.0 mph 73% 0.00 in
11:19 57.9 °F 49.7 °F 29.63 in SW 3.0 mph 10.0 mph 74% 0.00 in
11:24 57.5 °F 48.5 °F 29.63 in SSE 10.0 mph 16.0 mph 72% 0.00 in
11:29 57.5 °F 48.2 °F 29.63 in South 4.0 mph 10.0 mph 71% 0.00 in
11:34 58.1 °F 48.7 °F 29.62 in WSW 4.0 mph 12.0 mph 71% 0.00 in
11:39 58.6 °F 48.8 °F 29.62 in SW 3.0 mph 10.0 mph 70% 0.00 in
11:44 58.9 °F 49.5 °F 29.62 in WSW 7.0 mph 10.0 mph 71% 0.00 in
11:49 59.3 °F 48.7 °F 29.61 in WSW 4.0 mph 11.0 mph 68% 0.00 in
11:54 60.2 °F 49.2 °F 29.62 in WSW 5.0 mph 11.0 mph 67% 0.00 in
11:59 60.1 °F 49.1 °F 29.61 in WSW 6.0 mph 13.0 mph 67% 0.00 in
12:04 60.4 °F 48.6 °F 29.62 in SW 7.0 mph 13.0 mph 65% 0.00 in
12:09 60.4 °F 49.0 °F 29.62 in SW 5.0 mph 10.0 mph 66% 0.00 in
12:14 61.3 °F 49.0 °F 29.62 in SW 4.0 mph 10.0 mph 64% 0.00 in
12:19 60.9 °F 48.2 °F 29.62 in SSE 5.0 mph 11.0 mph 63% 0.00 in
12:24 61.2 °F 48.9 °F 29.62 in West 3.0 mph 11.0 mph 64% 0.00 in
12:29 61.1 °F 48.8 °F 29.62 in WSW 6.0 mph 12.0 mph 64% 0.00 in
12:34 60.5 °F 48.7 °F 29.62 in WSW 6.0 mph 12.0 mph 65% 0.00 in
12:39 60.1 °F 48.7 °F 29.62 in WSW 5.0 mph 11.0 mph 66% 0.00 in
12:44 59.8 °F 48.4 °F 29.63 in SE 4.0 mph 10.0 mph 66% 0.00 in
12:54 59.2 °F 48.2 °F 29.62 in WSW 2.0 mph 10.0 mph 67% 0.00 in
12:59 59.3 °F 48.7 °F 29.63 in WSW 3.0 mph 7.0 mph 68% 0.00 in
13:04 59.2 °F 48.6 °F 29.63 in WSW 4.0 mph 8.0 mph 68% 0.00 in
13:09 59.2 °F 48.2 °F 29.63 in SW 3.0 mph 11.0 mph 67% 0.00 in
13:14 59.5 °F 48.9 °F 29.62 in SW 3.0 mph 11.0 mph 68% 0.00 in
13:19 60.1 °F 49.1 °F 29.62 in SW 4.0 mph 8.0 mph 67% 0.00 in
13:24 60.9 °F 50.3 °F 29.62 in SW 4.0 mph 8.0 mph 68% 0.00 in
13:29 62.2 °F 51.1 °F 29.62 in SW 5.0 mph 8.0 mph 67% 0.00 in
13:34 62.6 °F 50.2 °F 29.62 in SW 5.0 mph 9.0 mph 64% 0.00 in
13:39 62.6 °F 49.8 °F 29.62 in SW 10.0 mph 14.0 mph 63% 0.00 in
13:44 61.9 °F 48.7 °F 29.62 in SW 7.0 mph 17.0 mph 62% 0.00 in
13:49 61.6 °F 48.4 °F 29.62 in SSW 5.0 mph 13.0 mph 62% 0.00 in
13:54 61.5 °F 49.6 °F 29.62 in SW 7.0 mph 12.0 mph 65% 0.00 in
13:59 61.6 °F 49.3 °F 29.63 in SSW 2.0 mph 11.0 mph 64% 0.00 in
14:09 62.0 °F 48.8 °F 29.63 in SSW 6.0 mph 15.0 mph 62% 0.00 in
14:14 61.8 °F 48.2 °F 29.63 in SSW 5.0 mph 12.0 mph 61% 0.00 in
14:19 61.4 °F 47.8 °F 29.63 in SSW 5.0 mph 13.0 mph 61% 0.00 in
14:24 61.0 °F 47.9 °F 29.63 in SW 5.0 mph 13.0 mph 62% 0.00 in
14:29 60.7 °F 47.6 °F 29.62 in SSW 5.0 mph 15.0 mph 62% 0.00 in
14:34 60.5 °F 47.4 °F 29.62 in WSW 3.0 mph 11.0 mph 62% 0.00 in
14:39 60.5 °F 47.0 °F 29.62 in SW 6.0 mph 11.0 mph 61% 0.00 in
14:44 60.4 °F 46.9 °F 29.62 in SW 6.0 mph 11.0 mph 61% 0.00 in
14:49 60.4 °F 46.9 °F 29.62 in SW 5.0 mph 16.0 mph 61% 0.00 in
14:54 60.4 °F 46.4 °F 29.62 in SW 7.0 mph 21.0 mph 60% 0.00 in
14:59 60.3 °F 46.4 °F 29.62 in South 5.0 mph 19.0 mph 60% 0.00 in
15:04 60.2 °F 46.3 °F 29.62 in WSW 10.0 mph 16.0 mph 60% 0.00 in
15:09 60.2 °F 46.3 °F 29.62 in SW 3.0 mph 13.0 mph 60% 0.00 in
15:14 60.1 °F 46.2 °F 29.62 in SW 6.0 mph 14.0 mph 60% 0.00 in
15:19 60.0 °F 46.1 °F 29.62 in SW 7.0 mph 16.0 mph 60% 0.00 in
15:24 60.5 °F 46.5 °F 29.61 in SSW 7.0 mph 17.0 mph 60% 0.00 in
15:29 60.8 °F 46.4 °F 29.62 in SSW 6.0 mph 17.0 mph 59% 0.00 in
15:34 61.0 °F 46.6 °F 29.62 in SSW 7.0 mph 13.0 mph 59% 0.00 in
15:39 61.3 °F 47.3 °F 29.62 in South 2.0 mph 11.0 mph 60% 0.00 in
15:44 61.9 °F 47.0 °F 29.62 in SSW 8.0 mph 14.0 mph 58% 0.00 in
15:49 61.1 °F 46.7 °F 29.62 in SSW 7.0 mph 17.0 mph 59% 0.00 in
15:54 60.8 °F 46.8 °F 29.62 in SSW 7.0 mph 17.0 mph 60% 0.00 in
15:59 61.8 °F 46.9 °F 29.62 in SSW 7.0 mph 16.0 mph 58% 0.00 in
16:04 61.4 °F 45.6 °F 29.62 in South 6.0 mph 18.0 mph 56% 0.00 in
16:09 61.0 °F 45.2 °F 29.63 in SW 11.0 mph 21.0 mph 56% 0.00 in
16:14 61.4 °F 45.1 °F 29.63 in SSE 11.0 mph 25.0 mph 55% 0.00 in
16:19 61.7 °F 45.4 °F 29.63 in SSW 11.0 mph 16.0 mph 55% 0.00 in
16:24 61.5 °F 44.7 °F 29.64 in SSW 8.0 mph 16.0 mph 54% 0.00 in
16:29 61.3 °F 44.5 °F 29.64 in SW 8.0 mph 15.0 mph 54% 0.00 in
16:34 60.8 °F 44.5 °F 29.64 in SW 7.0 mph 15.0 mph 55% 0.00 in
16:39 60.4 °F 44.6 °F 29.64 in SW 6.0 mph 15.0 mph 56% 0.00 in
16:44 60.8 °F 44.0 °F 29.64 in SSW 7.0 mph 22.0 mph 54% 0.00 in
16:49 61.2 °F 44.4 °F 29.64 in SW 4.0 mph 15.0 mph 54% 0.00 in
16:54 61.0 °F 43.7 °F 29.64 in SW 8.0 mph 17.0 mph 53% 0.00 in
16:59 60.7 °F 43.5 °F 29.64 in South 6.0 mph 19.0 mph 53% 0.00 in
17:04 60.5 °F 43.3 °F 29.65 in SSW 3.0 mph 15.0 mph 53% 0.00 in
17:09 60.2 °F 43.0 °F 29.64 in SW 6.0 mph 15.0 mph 53% 0.00 in
17:14 60.0 °F 43.3 °F 29.64 in SW 6.0 mph 15.0 mph 54% 0.00 in
17:19 60.0 °F 43.3 °F 29.65 in South 8.0 mph 15.0 mph 54% 0.00 in
17:24 59.8 °F 43.1 °F 29.65 in WSW 5.0 mph 13.0 mph 54% 0.00 in
17:29 59.7 °F 43.5 °F 29.65 in SSW 6.0 mph 15.0 mph 55% 0.00 in
17:34 59.6 °F 43.4 °F 29.65 in SSW 6.0 mph 15.0 mph 55% 0.00 in
17:39 59.6 °F 42.9 °F 29.65 in SSW 5.0 mph 11.0 mph 54% 0.00 in
17:44 59.8 °F 42.1 °F 29.65 in SSW 6.0 mph 21.0 mph 52% 0.00 in
17:49 59.8 °F 41.6 °F 29.65 in SSW 9.0 mph 22.0 mph 51% 0.00 in
17:54 59.4 °F 42.3 °F 29.66 in SSW 9.0 mph 22.0 mph 53% 0.00 in
17:59 59.0 °F 42.4 °F 29.66 in SW 10.0 mph 17.0 mph 54% 0.00 in
18:04 58.8 °F 42.7 °F 29.66 in SW 8.0 mph 23.0 mph 55% 0.00 in
18:09 58.5 °F 41.9 °F 29.67 in SSW 5.0 mph 23.0 mph 54% 0.00 in
18:14 58.1 °F 41.0 °F 29.67 in SW 11.0 mph 15.0 mph 53% 0.00 in
18:19 58.0 °F 40.5 °F 29.67 in South 6.0 mph 14.0 mph 52% 0.00 in
18:24 57.8 °F 39.8 °F 29.68 in SSW 8.0 mph 19.0 mph 51% 0.00 in
18:29 57.8 °F 39.3 °F 29.68 in SSW 7.0 mph 20.0 mph 50% 0.00 in
18:34 57.6 °F 39.6 °F 29.68 in SW 10.0 mph 20.0 mph 51% 0.00 in
18:39 57.3 °F 39.3 °F 29.68 in SW 9.0 mph 20.0 mph 51% 0.00 in
18:44 56.9 °F 39.4 °F 29.68 in SW 8.0 mph 19.0 mph 52% 0.00 in
18:49 56.7 °F 39.7 °F 29.68 in SW 7.0 mph 16.0 mph 53% 0.00 in
18:54 56.4 °F 39.5 °F 29.68 in SW 10.0 mph 12.0 mph 53% 0.00 in
18:59 56.1 °F 39.7 °F 29.68 in SSW 2.0 mph 14.0 mph 54% 0.00 in
19:04 55.8 °F 40.3 °F 29.68 in South 5.0 mph 17.0 mph 56% 0.00 in
19:09 55.6 °F 40.1 °F 29.68 in SSW 6.0 mph 17.0 mph 56% 0.00 in
19:14 55.5 °F 40.5 °F 29.68 in SSW 6.0 mph 14.0 mph 57% 0.00 in
19:19 55.2 °F 40.7 °F 29.68 in SSW 6.0 mph 14.0 mph 58% 0.00 in
19:24 55.0 °F 40.9 °F 29.69 in SW 4.0 mph 11.0 mph 59% 0.00 in
19:29 54.6 °F 41.0 °F 29.69 in WSW 3.0 mph 10.0 mph 60% 0.00 in
19:34 54.6 °F 41.0 °F 29.69 in SW 3.0 mph 13.0 mph 60% 0.00 in
19:39 54.6 °F 41.4 °F 29.69 in SW 4.0 mph 16.0 mph 61% 0.00 in
19:44 54.6 °F 41.4 °F 29.69 in SSW 6.0 mph 16.0 mph 61% 0.00 in
19:49 54.3 °F 41.6 °F 29.69 in SSW 5.0 mph 15.0 mph 62% 0.00 in
19:54 54.2 °F 41.5 °F 29.69 in SW 5.0 mph 15.0 mph 62% 0.00 in
19:59 54.1 °F 41.4 °F 29.69 in SSW 5.0 mph 13.0 mph 62% 0.00 in
20:04 54.0 °F 41.3 °F 29.69 in SW 5.0 mph 14.0 mph 62% 0.00 in
20:09 54.0 °F 41.3 °F 29.69 in WSW 10.0 mph 17.0 mph 62% 0.00 in
20:14 53.8 °F 41.5 °F 29.70 in SW 6.0 mph 10.0 mph 63% 0.00 in
20:19 53.6 °F 41.3 °F 29.70 in SSW 5.0 mph 10.0 mph 63% 0.00 in
20:24 53.5 °F 41.6 °F 29.70 in SSW 5.0 mph 11.0 mph 64% 0.00 in
20:29 53.5 °F 42.0 °F 29.70 in SSW 5.0 mph 11.0 mph 65% 0.00 in
20:34 53.4 °F 41.9 °F 29.70 in SSW 5.0 mph 16.0 mph 65% 0.00 in
20:39 53.4 °F 41.9 °F 29.70 in SW 3.0 mph 13.0 mph 65% 0.00 in
20:44 53.3 °F 42.2 °F 29.70 in SW 6.0 mph 16.0 mph 66% 0.00 in
20:49 53.3 °F 42.2 °F 29.70 in SSW 6.0 mph 16.0 mph 66% 0.00 in
20:54 53.4 °F 42.3 °F 29.70 in SSW 7.0 mph 16.0 mph 66% 0.00 in
20:59 53.3 °F 42.2 °F 29.70 in SSE 9.0 mph 13.0 mph 66% 0.00 in
21:04 53.3 °F 42.2 °F 29.70 in South 3.0 mph 12.0 mph 66% 0.00 in
21:09 53.1 °F 42.0 °F 29.70 in SSW 7.0 mph 14.0 mph 66% 0.00 in
21:14 53.0 °F 41.9 °F 29.70 in SSW 4.0 mph 12.0 mph 66% 0.00 in
21:19 52.8 °F 41.7 °F 29.70 in SSW 3.0 mph 12.0 mph 66% 0.00 in
21:24 52.8 °F 41.7 °F 29.70 in SSW 5.0 mph 12.0 mph 66% 0.00 in
21:29 52.7 °F 41.7 °F 29.70 in SSW 6.0 mph 14.0 mph 66% 0.00 in
21:34 52.6 °F 41.6 °F 29.70 in SW 5.0 mph 15.0 mph 66% 0.00 in
21:39 52.5 °F 41.9 °F 29.70 in SSW 5.0 mph 15.0 mph 67% 0.00 in
21:44 52.4 °F 41.8 °F 29.70 in SSW 5.0 mph 10.0 mph 67% 0.00 in
21:49 52.2 °F 41.6 °F 29.70 in SSW 2.0 mph 16.0 mph 67% 0.00 in
21:54 52.2 °F 41.6 °F 29.70 in SW 1.0 mph 11.0 mph 67% 0.00 in
21:59 52.3 °F 41.7 °F 29.70 in SSW 5.0 mph 11.0 mph 67% 0.00 in
22:04 52.3 °F 41.7 °F 29.70 in SSW 6.0 mph 15.0 mph 67% 0.00 in
22:09 52.1 °F 41.5 °F 29.70 in SSW 3.0 mph 9.0 mph 67% 0.00 in
22:14 52.0 °F 41.4 °F 29.70 in South 2.0 mph 14.0 mph 67% 0.00 in
22:19 51.7 °F 41.5 °F 29.70 in SSW 6.0 mph 9.0 mph 68% 0.00 in
22:24 51.6 °F 41.4 °F 29.70 in South 3.0 mph 9.0 mph 68% 0.00 in
22:29 51.5 °F 41.3 °F 29.70 in SSW 4.0 mph 11.0 mph 68% 0.00 in
22:34 51.5 °F 41.3 °F 29.70 in SSW 4.0 mph 12.0 mph 68% 0.00 in
22:39 51.5 °F 40.9 °F 29.70 in SSW 5.0 mph 12.0 mph 67% 0.00 in
22:44 51.6 °F 41.0 °F 29.70 in SSW 5.0 mph 12.0 mph 67% 0.00 in
22:49 51.5 °F 40.5 °F 29.70 in SSW 5.0 mph 12.0 mph 66% 0.00 in
22:54 51.5 °F 40.5 °F 29.70 in SSW 6.0 mph 15.0 mph 66% 0.00 in
22:59 51.4 °F 40.8 °F 29.70 in SSW 6.0 mph 15.0 mph 67% 0.00 in
23:04 51.1 °F 40.5 °F 29.70 in SSW 5.0 mph 11.0 mph 67% 0.00 in
23:09 50.9 °F 40.3 °F 29.69 in SW 6.0 mph 11.0 mph 67% 0.00 in
23:14 50.8 °F 40.2 °F 29.70 in SW 4.0 mph 10.0 mph 67% 0.00 in
23:19 50.8 °F 40.6 °F 29.69 in SSW 3.0 mph 17.0 mph 68% 0.00 in
23:24 50.8 °F 40.6 °F 29.69 in SW 3.0 mph 14.0 mph 68% 0.00 in
23:29 50.8 °F 40.6 °F 29.69 in SSW 8.0 mph 12.0 mph 68% 0.00 in
23:34 50.7 °F 40.5 °F 29.69 in SSW 5.0 mph 10.0 mph 68% 0.00 in
23:39 50.5 °F 40.3 °F 29.69 in SSW 6.0 mph 11.0 mph 68% 0.00 in
23:44 50.4 °F 40.6 °F 29.69 in SSW 6.0 mph 13.0 mph 69% 0.00 in
23:49 50.4 °F 40.6 °F 29.69 in SSW 6.0 mph 15.0 mph 69% 0.00 in
23:54 50.3 °F 40.5 °F 29.69 in SSW 6.0 mph 15.0 mph 69% 0.00 in
23:59 50.3 °F 40.9 °F 29.69 in SSW 6.0 mph 15.0 mph 70% 0.00 in
Buffalo, New York, USA
Compliments of Weather Underground - 2.5 mb